Location: Maccacari
(45.1333°N, 11.1333°E)
Time: 19:57:26
(UTC+00:00)

Tiros 1 despin weight - Pass Details

Date: 28 January 2021
Orbit: 593 x 642 km, 48.2° (Epoch: 26 February)

Event Time Altitude Azimuth Distance (km) Brightness Sun altitude
Rises 14:38:09 0° 275° (W) 2,892 ? 13.6°
Reaches altitude 10° 14:40:31 10° 279° (W) 1,977 ? 13.3°
Maximum altitude 14:44:59 57° 359° (N) 718 ? 12.7°
Drops below altitude 10° 14:49:24 10° 79° (E) 1,948 ? 12.1°
Sets 14:51:43 0° 83° (E) 2,844 ? 11.8°
